Wind_Speed
37 36 36 36 36 35 34 33 32 31 29 30 29 29 30 29 31 28 29 28 27 30 33 34 34 33 36 39 27 9 2 6 11 7 15 25 31 17 22 20 18 20 20 16 10
37 37 36 36 36 37 36 35 35 34 30 30 31 30 30 30 33 28 28 27 28 30 32 33 30 32 35 42 25 7 1 14 6 15 18 30 27 20 21 25 20 16 11 9 15
41 41 40 39 39 38 38 36 35 35 35 32 32 30 32 33 34 26 28 28 27 30 31 30 27 30 32 34 18 12 5 14 17 16 26 22 23 14 17 30 24 21 16 14 15
46 45 45 44 43 42 42 40 37 36 35 33 33 32 34 33 35 27 28 29 28 28 28 27 23 26 27 27 12 17 14 8 15 18 25 18 19 13 17 14 18 20 22 19 17
47 46 45 47 45 43 41 40 38 36 35 33 32 33 33 32 34 31 29 28 27 26 26 24 20 24 22 19 10 19 14 14 16 16 15 11 20 19 18 16 14 16 21 21 20
50 49 49 48 48 46 43 41 39 38 36 32 33 32 30 30 34 29 28 26 27 24 24 22 18 22 19 18 11 15 14 12 14 23 18 17 12 14 19 18 16 12 15 18 20
48 48 49 49 47 47 44 41 40 40 38 35 34 35 33 27 33 32 28 26 27 24 22 19 17 20 19 18 14 11 10 8 10 20 24 13 15 21 29 9 16 13 16 17 19
47 46 46 46 46 45 46 45 43 42 42 38 35 35 29 32 32 30 31 27 25 23 22 17 15 17 16 15 13 6 7 18 13 18 18 19 20 24 25 7 13 16 17 15 18
48 46 46 46 46 45 43 43 45 45 45 44 38 35 27 28 32 29 24 26 24 20 20 16 13 15 15 12 6 14 11 12 24 18 19 21 16 15 22 7 11 20 18 16 19
50 50 48 48 45 44 44 43 43 43 44 44 42 39 34 27 29 29 26 24 24 20 18 16 13 14 14 9 7 14 9 13 11 19 18 9 12 20 22 28 28 21 17 9 5
53 53 52 50 48 46 47 47 46 45 42 41 43 40 38 34 29 30 25 25 25 21 18 17 13 11 14 9 7 12 14 4 19 11 13 4 5 10 21 22 9 17 16 9 10
60 56 56 55 52 50 49 49 50 47 44 40 41 41 37 38 33 32 28 26 25 23 21 19 12 9 11 4 8 8 7 7 8 10 7 3 13 13 14 13 11 8 8 8 7
66 64 63 61 59 56 54 52 52 51 49 43 41 41 35 40 36 35 31 26 24 29 24 20 13 10 10 7 8 8 3 6 13 14 9 5 7 11 16 15 14 10 9 7 7
72 71 68 66 65 63 59 56 54 55 52 45 41 41 41 40 39 37 33 28 30 25 25 21 17 11 10 11 13 12 9 8 8 8 8 5 3 12 16 11 11 16 8 10 5
73 74 72 71 69 66 64 62 58 56 54 47 48 43 43 44 37 36 33 34 29 21 31 16 19 14 12 11 16 10 12 7 8 5 6 16 4 14 14 9 18 14 14 6 9
73 72 72 70 69 66 63 64 61 59 57 53 52 48 43 42 41 41 42 36 30 30 35 24 22 19 14 14 16 16 14 12 10 8 4 2 7 15 9 7 12 15 22 13 2
65 66 67 66 64 65 63 64 66 67 56 56 53 49 49 44 41 45 45 43 40 35 31 29 26 22 18 16 16 15 15 13 11 10 4 5 4 13 14 13 16 20 25 20 13
49 53 57 59 60 61 62 67 71 66 59 57 56 54 53 46 40 44 48 43 43 38 29 31 32 23 19 16 16 15 15 16 13 9 11 14 4 6 14 18 17 14 20 24 23
33 28 31 39 44 56 61 70 72 62 58 57 56 55 53 47 45 42 47 45 43 44 36 36 28 26 25 21 22 20 23 13 16 21 17 13 4 14 21 21 17 16 12 19 20
40 40 36 36 34 42 57 68 69 59 61 48 37 56 55 49 45 43 45 47 44 47 38 34 30 31 24 25 27 22 17 22 27 25 18 16 13 20 12 19 18 21 21 17 16
44 42 37 42 43 45 43 58 63 61 64 57 44 50 57 30 42 44 48 45 43 42 43 35 30 30 28 30 26 28 25 24 23 21 19 17 12 14 15 10 17 25 27 25 22
49 48 45 42 45 42 34 22 34 61 65 54 60 45 43 44 33 47 47 49 44 33 45 42 39 32 35 30 26 28 28 28 26 19 20 20 22 23 24 23 23 30 28 31 29
51 49 45 47 46 44 39 33 34 44 61 64 65 53 38 44 46 48 50 47 47 43 39 39 45 35 32 35 37 30 29 22 26 26 28 26 21 18 27 32 24 23 20 20 27
49 49 48 48 42 46 45 41 42 36 52 63 57 54 47 37 48 46 49 47 47 39 45 43 46 48 42 37 22 31 29 26 23 22 20 22 20 15 17 22 26 25 22 18 19
50 43 38 42 41 41 43 43 39 30 47 58 63 62 34 31 48 43 35 53 50 37 48 49 48 47 43 38 30 28 26 30 33 29 27 20 21 13 11 21 26 33 24 28 26
53 47 43 38 39 45 44 39 41 35 29 51 67 54 42 45 34 47 45 45 50 42 46 44 52 46 41 39 36 31 24 26 32 31 26 26 26 21 26 26 27 30 37 38 31
54 51 53 47 43 43 40 43 38 39 32 39 56 64 58 30 36 32 36 49 52 44 49 53 48 42 46 40 37 46 35 31 32 27 25 25 23 20 20 27 29 35 28 26 26
Wind_Direction
266 267 267 268 270 271 271 269 271 273 274 278 279 281 284 286 286 290 297 302 306 313 318 323 325 332 337 345 354 354 79 302 277 321 263 273 279 287 306 286 306 284 304 307 286
264 265 266 267 270 273 274 277 278 276 275 278 280 282 285 285 285 291 294 302 305 311 317 321 328 332 342 340 0 8 252 288 316 271 263 271 280 269 271 258 259 247 250 283 287
265 265 266 267 268 271 275 277 278 279 281 279 278 280 285 285 285 291 292 299 303 310 315 319 329 336 347 346 359 351 262 259 256 264 273 272 267 267 281 283 304 306 305 290 274
266 266 267 268 269 270 273 274 275 278 278 275 278 280 283 288 289 294 292 295 301 310 314 318 330 338 348 351 350 307 310 279 277 282 283 254 248 277 282 299 293 300 301 291 284
265 266 265 268 268 269 271 273 274 274 276 276 278 281 283 288 291 294 292 293 298 310 312 316 330 336 344 352 289 286 294 295 306 323 322 306 276 267 279 283 298 294 292 293 286
262 263 266 267 269 269 269 269 270 273 272 274 276 279 282 291 291 290 289 292 297 306 308 313 327 334 343 340 304 274 282 294 280 314 329 308 317 268 267 278 269 300 288 293 280
264 263 264 266 266 264 265 265 265 266 268 268 270 273 281 285 289 293 282 288 294 303 302 309 320 329 342 341 329 302 311 298 333 302 315 314 333 293 300 245 305 318 303 306 289
264 263 264 265 266 264 262 264 263 265 264 263 264 271 279 273 282 290 284 284 285 298 298 304 314 328 339 343 348 30 37 346 329 335 335 345 329 323 319 250 325 313 303 304 303
263 262 262 262 262 264 263 263 262 261 263 265 263 264 267 268 274 283 281 275 283 289 292 298 305 323 333 336 350 359 12 292 315 328 339 311 310 331 308 80 326 324 306 311 300
265 265 262 261 259 260 261 261 262 261 261 262 263 262 262 261 268 275 274 271 276 279 286 290 291 320 329 329 29 285 339 278 270 303 335 336 294 299 318 335 330 322 298 299 315
263 264 263 262 260 259 258 259 259 260 261 259 262 261 261 257 260 261 266 267 270 278 278 277 280 312 319 1 322 266 237 261 277 316 324 318 332 331 331 317 28 20 32 53 40
271 267 264 264 262 260 259 257 255 254 253 253 257 261 258 260 253 256 255 262 264 275 260 273 280 291 317 244 262 288 229 176 233 244 301 355 354 307 2 1 3 10 35 36 14
272 272 271 269 265 262 260 257 256 252 250 247 251 255 255 255 251 250 251 253 259 265 261 267 262 273 287 240 252 271 305 213 264 274 268 288 221 279 307 354 357 11 13 11 32
272 272 271 270 268 267 263 256 254 252 251 249 245 248 251 255 249 250 251 251 251 255 258 254 249 254 268 247 241 250 273 259 230 254 302 341 263 298 277 281 4 355 10 360 358
272 271 270 269 268 264 262 260 258 254 253 251 247 245 247 250 254 246 252 250 251 247 253 257 241 241 247 249 237 252 257 213 212 259 285 295 2 271 282 294 305 332 334 5 343
273 271 268 266 266 259 253 255 247 244 248 251 250 248 245 247 245 244 242 244 235 233 243 236 237 232 240 248 240 235 251 225 233 234 287 211 294 278 274 194 268 304 302 317 331
268 267 266 264 257 249 249 242 238 240 252 249 250 246 248 244 242 241 242 241 238 235 250 240 234 227 228 241 232 224 237 216 240 248 338 282 238 268 323 315 288 289 291 305 301
255 254 253 251 248 241 238 234 235 249 250 248 247 244 242 247 241 239 241 237 233 232 234 238 233 225 226 233 227 216 222 217 250 217 245 255 239 236 235 276 299 300 270 279 293
251 256 255 251 249 244 236 232 235 247 242 233 236 243 243 245 243 237 239 239 234 234 231 238 227 226 226 218 221 208 224 220 247 265 225 259 200 307 256 257 261 299 286 270 281
254 254 251 252 252 249 247 238 232 232 224 215 226 237 241 247 242 236 236 237 232 228 226 225 232 225 221 225 217 208 218 226 225 235 241 242 253 234 282 283 270 294 281 300 288
254 252 248 248 246 251 265 259 239 223 213 205 203 218 231 232 233 235 239 236 233 226 214 206 215 213 216 222 216 220 215 222 236 239 250 246 238 285 255 241 278 280 288 289 295
255 253 250 246 248 258 269 306 250 232 218 208 211 211 224 221 234 232 237 237 232 230 210 201 212 211 225 228 224 230 221 229 236 232 248 243 214 236 250 262 273 282 282 288 287
249 251 251 248 248 255 258 258 255 233 224 218 219 210 221 220 220 228 233 237 232 225 211 202 212 217 207 233 228 217 223 225 233 236 229 231 249 246 255 270 276 289 275 277 286
244 246 247 250 247 247 248 247 251 248 229 213 223 211 214 206 226 232 232 233 235 226 216 199 215 217 217 222 232 229 222 214 230 238 237 235 248 230 245 273 289 281 282 253 255
238 244 246 253 254 257 257 253 251 259 229 221 217 215 196 218 219 212 231 230 234 220 218 202 213 218 222 218 228 231 230 230 224 224 234 242 251 234 241 252 258 268 264 274 273
241 244 244 250 253 250 250 246 245 244 244 224 221 211 217 225 220 231 224 242 230 224 209 209 212 215 214 227 217 219 241 246 231 234 238 245 244 242 232 235 268 274 267 271 261
242 241 241 241 249 249 248 250 245 244 250 221 220 212 215 239 219 209 237 232 234 233 224 204 217 217 222 217 222 216 208 220 241 239 241 245 250 249 237 246 251 261 275 268 263
Height
5801 5802 5803 5804 5806 5807 5807 5807 5808 5808 5809 5809 5809 5808 5807 5806 5804 5804 5802 5802 5799 5797 5795 5792 5788 5784 5780 5775 5771 5769 5770 5770 5770 5771 5768 5765 5759 5760 5760 5758 5755 5748 5747 5751 5752
5793 5794 5796 5797 5799 5800 5801 5802 5803 5804 5803 5804 5803 5803 5802 5801 5798 5800 5798 5797 5795 5794 5791 5789 5785 5782 5776 5771 5767 5769 5768 5769 5769 5769 5767 5763 5762 5760 5760 5749 5739 5735 5736 5747 5744
5786 5787 5788 5790 5792 5793 5795 5796 5797 5797 5799 5798 5798 5798 5796 5796 5794 5797 5794 5792 5791 5790 5788 5785 5782 5778 5772 5767 5768 5767 5768 5769 5766 5765 5761 5759 5760 5757 5753 5746 5747 5742 5739 5745 5746
5777 5779 5780 5782 5784 5785 5787 5788 5790 5791 5791 5792 5792 5793 5791 5791 5791 5793 5790 5789 5787 5786 5785 5782 5779 5776 5770 5766 5767 5768 5766 5765 5764 5761 5757 5756 5756 5755 5752 5746 5749 5743 5739 5742 5741
5767 5770 5772 5774 5775 5777 5778 5780 5782 5782 5784 5785 5785 5787 5786 5787 5787 5786 5784 5784 5783 5782 5782 5779 5776 5773 5768 5765 5769 5766 5763 5763 5760 5756 5754 5751 5753 5754 5751 5745 5747 5743 5738 5735 5735
5756 5759 5763 5764 5766 5767 5769 5771 5773 5774 5776 5778 5779 5779 5781 5783 5779 5780 5780 5780 5779 5778 5778 5776 5774 5771 5766 5764 5762 5762 5760 5759 5756 5756 5753 5750 5750 5746 5746 5744 5745 5740 5738 5736 5732
5745 5748 5751 5754 5756 5758 5760 5762 5764 5765 5768 5770 5770 5772 5775 5779 5773 5773 5774 5776 5775 5774 5774 5773 5771 5768 5764 5762 5760 5759 5758 5756 5756 5756 5753 5746 5747 5744 5742 5727 5738 5735 5735 5736 5732
5735 5738 5741 5743 5745 5748 5750 5752 5754 5756 5759 5762 5762 5764 5770 5769 5768 5769 5769 5771 5770 5771 5770 5769 5768 5765 5762 5760 5758 5758 5756 5755 5756 5754 5752 5747 5748 5745 5741 5741 5737 5736 5735 5735 5732
5725 5728 5730 5733 5736 5739 5740 5742 5744 5747 5750 5753 5755 5756 5763 5765 5763 5762 5763 5765 5766 5765 5766 5765 5765 5763 5760 5759 5757 5755 5756 5756 5753 5753 5749 5751 5749 5746 5733 5729 5738 5734 5735 5734 5732
5714 5716 5719 5723 5726 5729 5731 5732 5733 5736 5739 5743 5747 5750 5754 5758 5757 5757 5758 5758 5761 5760 5762 5762 5761 5760 5758 5757 5755 5755 5757 5756 5757 5753 5752 5749 5750 5743 5737 5732 5738 5732 5730 5735 5732
5703 5705 5708 5711 5715 5717 5721 5723 5724 5726 5730 5736 5737 5742 5742 5749 5751 5750 5751 5752 5756 5757 5757 5757 5758 5758 5755 5752 5754 5756 5754 5756 5755 5753 5752 5749 5748 5744 5743 5742 5739 5734 5732 5732 5733
5687 5692 5697 5700 5703 5706 5709 5711 5711 5717 5720 5725 5729 5732 5737 5740 5743 5744 5744 5748 5749 5753 5750 5753 5754 5754 5752 5752 5754 5754 5752 5753 5754 5753 5751 5748 5747 5745 5746 5744 5743 5740 5737 5737 5736
5671 5675 5680 5686 5690 5693 5697 5698 5700 5703 5708 5718 5721 5723 5730 5730 5735 5737 5737 5741 5743 5745 5746 5747 5751 5750 5749 5750 5751 5751 5750 5750 5751 5750 5749 5747 5745 5745 5743 5744 5742 5743 5740 5738 5738
5653 5658 5664 5670 5674 5678 5681 5683 5687 5690 5695 5706 5712 5716 5717 5722 5724 5731 5731 5736 5732 5739 5742 5743 5744 5746 5746 5747 5748 5749 5749 5748 5748 5747 5747 5746 5745 5743 5743 5743 5743 5741 5742 5742 5740
5636 5640 5645 5653 5657 5661 5662 5667 5675 5679 5684 5696 5698 5707 5709 5712 5720 5723 5726 5725 5728 5734 5735 5742 5740 5741 5742 5744 5743 5746 5746 5745 5745 5745 5745 5744 5743 5744 5741 5740 5739 5742 5741 5742 5742
5616 5621 5628 5634 5640 5637 5642 5651 5656 5661 5673 5684 5689 5695 5699 5704 5708 5712 5714 5719 5723 5722 5726 5733 5735 5736 5737 5738 5739 5741 5743 5743 5743 5743 5744 5745 5746 5743 5740 5742 5741 5739 5740 5740 5740
5597 5602 5609 5614 5621 5611 5624 5628 5633 5640 5675 5676 5681 5685 5688 5694 5698 5700 5703 5708 5712 5714 5719 5727 5728 5731 5732 5734 5735 5737 5739 5740 5740 5740 5742 5742 5744 5744 5743 5741 5743 5742 5738 5738 5738
5579 5583 5589 5595 5595 5593 5605 5606 5611 5641 5659 5664 5669 5672 5679 5683 5689 5690 5693 5699 5704 5707 5713 5716 5721 5726 5728 5730 5732 5733 5735 5736 5736 5738 5741 5739 5742 5745 5742 5740 5741 5740 5740 5737 5737
5565 5571 5575 5579 5579 5579 5584 5583 5596 5636 5646 5650 5654 5660 5668 5672 5678 5681 5684 5690 5697 5700 5706 5709 5716 5720 5721 5724 5726 5729 5729 5735 5736 5734 5736 5737 5738 5742 5736 5735 5736 5736 5734 5733 5733
5555 5560 5567 5568 5569 5568 5567 5568 5587 5618 5626 5628 5639 5649 5654 5661 5667 5672 5674 5680 5686 5689 5696 5701 5708 5712 5716 5717 5720 5721 5727 5729 5729 5730 5731 5733 5736 5735 5733 5731 5731 5731 5730 5731 5730
5542 5546 5556 5557 5559 5557 5559 5567 5582 5597 5607 5609 5620 5632 5640 5653 5656 5661 5666 5673 5674 5677 5682 5694 5700 5706 5710 5709 5714 5717 5718 5721 5724 5725 5726 5728 5732 5727 5729 5727 5726 5727 5726 5726 5726
5530 5535 5542 5546 5548 5552 5554 5562 5574 5582 5589 5602 5602 5615 5630 5639 5647 5651 5655 5660 5664 5664 5670 5683 5691 5696 5700 5705 5708 5711 5713 5716 5718 5721 5722 5723 5725 5727 5726 5724 5724 5722 5723 5721 5720
5517 5524 5530 5534 5538 5541 5549 5553 5555 5561 5573 5588 5598 5605 5619 5625 5633 5638 5643 5649 5650 5658 5663 5675 5681 5688 5693 5697 5697 5703 5706 5709 5713 5716 5716 5717 5719 5722 5721 5719 5721 5719 5717 5716 5715
5506 5512 5519 5520 5530 5532 5537 5541 5546 5553 5560 5578 5591 5597 5602 5617 5621 5629 5633 5639 5640 5650 5655 5661 5671 5675 5682 5689 5698 5697 5700 5703 5707 5708 5710 5710 5713 5715 5716 5715 5713 5712 5711 5708 5709
5493 5503 5511 5513 5520 5526 5531 5536 5541 5546 5550 5563 5573 5588 5596 5601 5613 5620 5626 5629 5633 5642 5646 5653 5658 5668 5675 5682 5688 5691 5694 5697 5698 5701 5703 5705 5706 5708 5711 5711 5709 5707 5704 5705 5706
5482 5494 5500 5506 5510 5515 5520 5525 5532 5540 5543 5553 5562 5581 5595 5595 5603 5609 5615 5620 5626 5634 5638 5647 5651 5658 5665 5673 5679 5684 5687 5689 5692 5694 5696 5698 5698 5701 5703 5704 5701 5700 5699 5699 5700
5474 5483 5486 5494 5499 5507 5513 5520 5527 5533 5538 5542 5557 5572 5579 5593 5596 5605 5606 5612 5616 5626 5633 5636 5643 5651 5655 5665 5671 5670 5676 5683 5686 5687 5689 5690 5693 5695 5695 5696 5696 5693 5691 5691 5692